Flag for Nicaragua Weather past 2 weeks in Masaya, Nicaragua

Now
88 °F

Scattered clouds.


Feels Like: 91 °F
Forecast: 73 / 88 °F
Wind: 16 mph from East

Location: Managua A. C. Sandino

Current Time: Mar 6, 2015 at 10:56:09 AM

Latest Report: Mar 6, 2015 at 10:00 AM


Visibility: N/A

Pressure: 29.92 "Hg

Humidity: 52%

Dew point: 68 °F

Location of MasayaLocation

Historic Weather in Masaya — Graph

°F

Masaya temperature yesterday

Maximum temperature yesterday: 95 °F (at 2:00 PM)
Minimum temperature yesterday: 73 °F (at 6:00 AM)
Average temperature yesterday: 85 °F

Past Weeks' High & Low Weather Summary

 TemperatureHumidityPressure
High95 °F (Feb 24, 3:00 PM)88% (Feb 22, 4:00 AM)29.98 "Hg (Feb 22, 4:00 AM)
Low70 °F (Feb 20, 5:00 AM)30% (Feb 28, 4:00 PM)29.74 "Hg (Feb 26, 3:00 PM)
Average83 °F59%29.87 "Hg
* Reported Feb 19 10:00 AM — Mar 6 10:00 AM, Masaya, Weather by CustomWeather, © 2015

Note: Actual official high and low records may vary slightly from our data, if they occured in-between our weather recording intervals... More about our weather records

Advertising

Masaya weather history for previous 24 hours

 ConditionsComfort  
Time TempWeatherWind HumidityBarometerVisibility
10:00 AM
Fri, Mar 6
88 °FScattered clouds.16 mph52%29.92 "HgN/A
9:00 AM82 °FScattered clouds.9 mph62%29.92 "HgN/A
8:00 AM84 °FPassing clouds.16 mph62%29.92 "HgN/A
7:00 AM79 °FScattered clouds.7 mph74%29.89 "HgN/A
6:00 AM77 °FPassing clouds.7 mph83%29.89 "HgN/A
5:00 AM77 °FPassing clouds.7 mph83%29.86 "HgN/A
4:00 AM77 °FPassing clouds.7 mph79%29.86 "HgN/A
3:00 AM79 °FPassing clouds.5 mph79%29.86 "HgN/A
1:00 AM79 °FPassing clouds.9 mph79%29.89 "HgN/A
12:00 AM81 °FPassing clouds.9 mph74%29.89 "HgN/A
11:00 PM
Thu, Mar 5
81 °FPassing clouds.7 mph70%29.92 "HgN/A
10:00 PM81 °FPassing clouds.7 mph70%29.92 "HgN/A
9:00 PM82 °FPassing clouds.9 mph70%29.89 "HgN/A
8:00 PM82 °FPassing clouds.16 mph70%29.86 "HgN/A
7:00 PM86 °FPassing clouds.12 mph59%29.83 "HgN/A
6:00 PM88 °FPassing clouds.9 mph52%29.77 "HgN/A
5:00 PM90 °FScattered clouds.18 mph46%29.77 "HgN/A
4:00 PM93 °FScattered clouds.16 mph44%29.74 "HgN/A
3:00 PM95 °FScattered clouds.14 mph39%29.74 "HgN/A
2:00 PM95 °FScattered clouds.18 mph39%29.77 "HgN/A
1:00 PM91 °FPartly sunny.18 mph44%29.83 "HgN/A
12:00 PM91 °FScattered clouds.21 mph41%29.83 "HgN/A
11:00 AM91 °FScattered clouds.18 mph44%29.86 "HgN/A
10:00 AM88 °FScattered clouds.18 mph52%29.89 "HgN/A
Weather by CustomWeather, © 2015

See weather overviewHow to use our weather pages